Weather in Kaskovo

Russia / Pskov Oblast     56°12′02″N   31°11′39″E
temp.,
°C
wind,
m/s
gust,
m/s
humid.,
%
clouds,
%
prec.,
mm/h
press.,
hPa
HPBL,
m
13 april, tue
tue1300:00+9sse3994100 1.6 1023394
03:00+8se2598100 2.8 1022168
06:00+8se1198100 0.2 102136
09:00+10sse1390100 0.2 1021212
12:00+14sse2474100 0.0 1020679
15:00+14wsw0179100 0.0 1019113
18:00+11wnw1294100 2.0 101839
21:00+11se2795100 2.5 1018263
14 april, wed
wed1400:00+10sse379387 0.0 1017276
03:00+9sse2797100 0.1 1016249
06:00+9sse2897100 0.0 1016296
09:00+11ssw258886 0.0 1016387
12:00+11wnw3387100 0.3 1017378
15:00+10nnw338392 0.4 1017474
18:00+8n4688100 0.0 1018370
21:00+6n3792100 0.2 1019307
15 april, thu
thu1500:00+5nne4995100 1.9 1019300
03:00+5nne4995100 3.3 1019343
06:00+5nne3995100 0.3 1019415
09:00+5nne4995100 0.9 1019476
12:00+6nne4993100 0.4 1019425
15:00+8nne41088100 0.5 1019692
18:00+6ne51291100 0.3 1019570
21:00+6ne51394100 3.7 1019628
16 april, fri
fri1600:00+6ne51392100 0.3 1019592
03:00+6ene5139192 0.3 1019543
06:00+5ene51392100 0.0 1020614
09:00+6ene51188100 0.0 1020683
12:00+9ene5978100 0.0 1020779
15:00+12ene5973100 0.1 10201052
18:00+10ne51176100 2.7 10201053
21:00+9ene5127955 2.7 1022858
17 april, sat
sat1700:00+8ene5138186 0.0 1022689
03:00+7ene51284100 0.0 1022612
06:00+7ene41183100 0.2 1023509
09:00+6ene4118292 0.3 1024522
12:00+10ene377435 0.2 1025613
15:00+15ene585797 0.2 10241415
18:00+13ene596248 0.0 10251207
21:00+10ene5136741 0.0 1026608